Waarnemingen

Advertentie
Mijn weer
Kempten, Duitsland (10946): temperatuur & dauwpunt: 18.11.2017 17:00:00 - 24.11.2017 17:00:00 (CET)Kempten, Duitsland (10946): temperatuur 5cm & temperatuur -5cm: 18.11.2017 17:00:00 - 24.11.2017 17:00:00 (CET)Kempten, Duitsland (10946): temperatuur -20cm & temperatuur -100cm: 18.11.2017 17:00:00 - 24.11.2017 17:00:00 (CET)Kempten, Duitsland (10946): windsnelheid & windstoten: 18.11.2017 17:00:00 - 24.11.2017 17:00:00 (CET)Kempten, Duitsland (10946): windrichting: 18.11.2017 17:00:00 - 24.11.2017 17:00:00 (CET)Kempten, Duitsland (10946): luchtdruk: 18.11.2017 17:00:00 - 24.11.2017 17:00:00 (CET)Kempten, Duitsland (10946): zicht: 18.11.2017 17:00:00 - 24.11.2017 17:00:00 (CET)Kempten, Duitsland (10946): Zonneschijnduur: 18.11.2017 17:00:00 - 24.11.2017 17:00:00 (CET)Kempten, Duitsland (10946): neerslag: 18.11.2017 17:00:00 - 24.11.2017 17:00:00 (CET)
Datum & Tijd tt [°C] td [°C] tt 5cm [°C] tt -5cm [°C] tt -20cm [°C] tt -100cm [°C] ff [km/u] ff [kn] fx [km/u] fx [kn] dd ppp [hPa] vv [km] sd [min] rr [mm]
24.11.2017 17:00:00 12,1 1,5 8,7 6,2 5,2 8,2 8 4 18 10 ZZW 1014,8 51 0 0,0
24.11.2017 16:00:00 12,1 1,0 9,0 6,8 5,0 8,2 8 4 21 12 Z 1014,8 51 1 0,0
24.11.2017 15:00:00 13,8 0,2 11,1 7,3 4,7 8,2 11 6 18 10 ZZW 1014,0 58 42 0,0
24.11.2017 14:00:00 14,5 0,0 12,1 7,7 4,3 8,2 9 5 17 9 ZZW 1013,7 47 60 0,0
24.11.2017 13:00:00 13,9 -0,5 13,3 7,4 3,8 8,2 10 5 19 11 ZZW 1014,1 63 60 0,0
24.11.2017 12:00:00 13,0 0,4 13,6 6,3 3,3 8,2 8 4 16 9 Z 1014,8 70 53 0,0
24.11.2017 11:00:00 9,9 0,7 11,4 4,6 3,1 8,2 8 4 12 6 ZO 1016,4 28 60 0,0
24.11.2017 10:00:00 7,0 0,2 7,0 2,2 3,0 8,2 8 4 15 8 ZO 1016,7 32 59 0,0
24.11.2017 09:00:00 4,7 -0,6 3,9 1,3 3,0 8,2 10 6 19 10 OZO 1017,7 40 39 0,0
24.11.2017 08:00:00 4,2 -0,7 1,4 1,0 3,2 8,2 11 6 20 11 ZO 1017,8 53 0 0,0
24.11.2017 07:00:00 3,6 -0,7 0,6 1,1 3,2 8,2 11 6 19 10 ZZO 1017,9 61 0 0,0
24.11.2017 06:00:00 4,4 -0,6 2,0 1,4 3,3 8,2 11 6 19 11 ZZO 1018,1 67 0 0,0
24.11.2017 05:00:00 4,8 -0,4 2,2 1,9 3,4 8,2 8 5 17 9 ZZO 1018,0 67 0 0,0
24.11.2017 04:00:00 5,0 -0,3 1,8 2,0 3,4 8,2 10 6 21 11 ZZO 1018,2 66 0 0,0
24.11.2017 03:00:00 5,5 -0,2 3,5 2,0 3,4 8,2 10 5 21 11 ZZO 1018,1 55 0 0,0
24.11.2017 02:00:00 5,6 -0,4 2,8 1,7 3,5 8,2 10 5 21 11 ZZO 1018,3 64 0 0,0
24.11.2017 01:00:00 5,6 -0,5 2,5 1,5 3,6 8,2 10 5 20 11 ZZO 1018,5 56 0 0,0
24.11.2017 00:00:00 5,1 -0,6 1,5 1,6 3,7 8,2 9 5 16 9 ZO 1018,9 52 0 0,0
23.11.2017 23:00:00 4,9 -0,5 0,8 1,9 3,8 8,2 9 5 14 8 ZZO 1018,8 54 0 0,0
23.11.2017 22:00:00 5,7 -0,4 2,5 2,1 4,0 8,2 8 4 15 8 OZO 1018,6 28 0 0,0
23.11.2017 21:00:00 5,5 0,0 1,7 2,5 4,1 8,2 8 5 16 9 OZO 1018,3 44 0 0,0
23.11.2017 20:00:00 6,2 0,0 3,3 2,8 4,2 8,2 9 5 18 10 ZO 1017,7 44 0 0,0
23.11.2017 19:00:00 5,6 0,2 1,5 3,1 4,4 8,2 9 5 14 8 ZO 1017,8 39 0 0,0
23.11.2017 18:00:00 5,8 -0,4 1,8 3,7 4,4 8,2 5 3 11 6 ZZO 1017,6 21 0 0,0
23.11.2017 17:00:00 10,7 -1,5 5,5 4,7 4,4 8,2 7 4 21 12 ZZW 1015,5 51 0 0,0
23.11.2017 16:00:00 12,7 -2,2 8,1 5,7 4,1 8,2 10 6 21 11 ZZW 1014,5 58 45 0,0
23.11.2017 15:00:00 12,8 -0,5 10,7 6,4 3,7 8,2 10 5 21 11 Z 1014,3 12 38 0,0
23.11.2017 14:00:00 13,1 -1,7 12,1 6,4 3,2 8,2 9 5 15 8 ZZW 1013,8 54 54 0,0
23.11.2017 13:00:00 12,5 1,3 11,8 5,5 2,7 8,2 6 4 13 7 NW 1013,5 21 58 0,0
23.11.2017 12:00:00 13,4 -2,2 12,8 3,3 2,5 8,2 8 4 16 9 Z 1013,1 51 55 0,0
23.11.2017 11:00:00 11,6 -2,2 12,3 0,6 2,5 8,2 9 5 17 9 Z 1013,7 40 60 0,0
23.11.2017 10:00:00 6,6 -2,9 5,6 0,5 2,6 8,2 10 5 17 9 ZO 1014,9 21 60 0,0
23.11.2017 09:00:00 3,7 -3,4 1,4 0,5 2,6 8,2 6 3 17 9 ZO 1015,8 59 44 0,0
23.11.2017 08:00:00 2,0 -3,1 -1,3 0,5 2,7 8,2 8 4 13 7 ZO 1016,3 63 0 0,0
23.11.2017 07:00:00 0,5 -2,8 -3,0 0,6 2,8 8,2 9 5 13 7 OZO 1016,2 52 0 0,0
23.11.2017 06:00:00 -2,5 -4,5 -3,8 0,7 2,9 8,2 8 5 10 5 O 1016,8 57 0 0,0
23.11.2017 05:00:00 -1,4 -3,9 -3,8 0,7 3,0 8,3 6 3 13 7 OZO 1015,7 62 0 0,0
23.11.2017 04:00:00 0,2 -3,4 -2,8 0,8 3,1 8,3 8 4 15 8 ZO 1014,9 70 0 0,0
23.11.2017 03:00:00 -0,3 -3,6 -1,9 0,8 3,2 8,3 9 5 13 7 OZO 1015,0 70 0 0,0
23.11.2017 02:00:00 1,1 -3,2 -2,2 0,8 3,3 8,3 7 4 16 9 OZO 1014,4 68 0 0,0
23.11.2017 01:00:00 0,7 -3,0 -2,0 0,9 3,4 8,3 9 5 14 7 OZO 1015,1 58 0 0,0
23.11.2017 00:00:00 0,8 -3,0 -1,7 1,0 3,6 8,3 10 6 14 8 ZO 1015,5 55 0 0,0
22.11.2017 23:00:00 1,5 -2,7 -1,3 1,1 3,8 8,3 10 5 16 8 OZO 1015,4 42 0 0,0
22.11.2017 22:00:00 2,2 -2,1 -1,1 1,2 4,1 8,3 10 5 18 10 OZO 1015,4 40 0 0,0
22.11.2017 21:00:00 2,4 -1,5 -0,7 1,6 4,3 8,3 10 5 16 9 OZO 1015,4 42 0 0,0
22.11.2017 20:00:00 2,5 -1,0 -1,4 2,1 4,6 8,3 9 5 16 9 ZO 1015,7 44 0 0,0
22.11.2017 19:00:00 2,5 -0,8 0,1 2,8 4,8 8,3 10 5 14 7 OZO 1016,0 33 0 0,0
22.11.2017 18:00:00 4,0 -0,3 1,3 3,8 4,9 8,3 10 6 13 7 OZO 1015,6 59 0 0,0
22.11.2017 17:00:00 8,0 0,5 3,9 4,9 4,9 8,3 6 3 10 5 O 1014,4 42 19 0,0
22.11.2017 16:00:00 14,0 -1,9 9,2 6,2 4,8 8,3 6 4 15 8 ZW 1012,7 37 60 0,0
22.11.2017 15:00:00 14,6 -1,8 11,9 6,9 4,5 8,3 10 6 19 10 ZZW 1013,1 4,7 60 0,0
22.11.2017 14:00:00 14,3 -2,7 11,6 7,5 4,0 8,3 10 6 26 14 ZW 1013,4 18 60 0,0
22.11.2017 13:00:00 14,7 -2,2 13,7 7,2 3,5 8,3 9 5 21 11 ZW 1013,5 23 60 0,0
22.11.2017 12:00:00 13,5 0,6 13,7 5,9 3,0 8,3 6 3 10 6 Z 1013,8 38 60 0,0
22.11.2017 11:00:00 10,5 0,9 11,6 3,9 2,8 8,3 4 2 13 7 Z 1015,3 25 60 0,0
22.11.2017 10:00:00 7,5 0,7 7,2 1,3 2,7 8,3 8 4 13 7 Z 1016,1 39 38 0,0
22.11.2017 09:00:00 4,9 -0,6 2,2 0,8 2,8 8,3 8 5 18 10 ZZO 1016,9 54 2 0,0
22.11.2017 08:00:00 3,9 -0,9 0,7 0,7 2,9 8,3 10 6 19 10 ZO 1017,2 47 0 0,0
22.11.2017 07:00:00 4,6 -0,6 1,5 0,8 3,0 8,3 11 6 22 12 ZZO 1016,9 70 0 0,0
22.11.2017 06:00:00 3,2 -0,5 0,7 0,8 3,1 8,3 11 6 16 9 ZO 1017,5 70 0 0,0
22.11.2017 05:00:00 3,6 -0,5 0,4 0,8 3,2 8,3 9 5 14 8 OZO 1017,5 70 0 0,0
22.11.2017 04:00:00 3,7 -0,5 1,1 0,9 3,3 8,3 10 5 15 8 O 1017,8 70 0 0,0
22.11.2017 03:00:00 4,3 -0,2 1,0 0,9 3,5 8,3 9 5 16 9 ZO 1017,8 70 0 0,0
22.11.2017 02:00:00 4,0 -0,1 0,6 1,2 3,6 8,3 9 5 17 9 ZO 1018,1 70 0 0,0
22.11.2017 01:00:00 4,3 0,1 0,4 1,4 3,8 8,3 9 5 16 9 ZZO 1018,4 64 0 0,0
22.11.2017 00:00:00 4,4 0,2 1,0 1,8 4,0 8,4 9 5 16 8 ZO 1018,4 62 0 0,0
21.11.2017 23:00:00 5,3 0,7 1,3 2,2 4,2 8,4 9 5 18 10 Z 1018,1 57 0 0,0
21.11.2017 22:00:00 5,1 0,9 1,0 2,6 4,3 8,4 7 4 16 9 ZO 1018,4 70 0 0,0
21.11.2017 21:00:00 5,7 1,3 2,2 3,1 4,5 8,4 10 5 19 10 ZO 1018,1 53 0 0,0
21.11.2017 20:00:00 7,5 1,7 4,0 3,8 4,6 8,4 13 7 21 12 Z 1017,8 52 0 0,0
21.11.2017 19:00:00 7,9 2,2 5,2 4,6 4,6 8,4 13 7 25 14 Z 1017,8 57 0 0,0
21.11.2017 18:00:00 8,5 2,3 6,5 5,0 4,6 8,4 14 7 22 12 Z 1017,8 57 0 0,0
21.11.2017 17:00:00 8,5 2,7 6,2 5,4 4,4 8,4 13 7 21 11 Z 1017,5 49 0 0,0
21.11.2017 16:00:00 8,9 3,1 7,2 5,8 4,3 8,4 12 7 32 17 ZZW 1017,7 27 11 0,0
21.11.2017 15:00:00 8,3 3,4 7,1 5,5 4,1 8,4 11 6 27 14 ZZW 1017,9 70 1 0,0
21.11.2017 14:00:00 7,2 4,4 6,3 5,2 3,9 8,4 11 6 28 15 ZZW 1018,5 56 0 0,4
21.11.2017 13:00:00 6,6 2,8 5,3 4,9 3,7 8,4 17 9 30 16 ZZW 1019,5 10 0 0,0
21.11.2017 12:00:00 7,6 1,6 6,0 4,8 3,5 8,4 9 5 20 11 ZW 1019,2 22 0 0,0
21.11.2017 11:00:00 7,2 1,0 6,3 4,4 3,3 8,4 5 3 19 10 NNW 1020,1 52 0 0,0
21.11.2017 10:00:00 6,4 1,7 5,5 3,7 3,1 8,4 7 4 34 19 W 1019,5 26 0 0,0
21.11.2017 09:00:00 5,4 1,7 4,2 2,8 3,0 8,5 19 11 34 18 ZZW 1019,4 70 0 0,1
21.11.2017 08:00:00 4,5 1,2 3,0 2,2 3,0 8,5 17 9 49 26 ZZW 1020,1 70 0 0,0
21.11.2017 07:00:00 3,2 1,3 2,2 2,4 3,0 8,5 26 14 42 23 ZZW 1020,0 16 0 0,5
21.11.2017 06:00:00 3,6 1,2 2,5 2,4 2,9 8,5 11 6 36 20 ZW 1020,9 15 0 0,0
21.11.2017 05:00:00 3,0 1,5 2,2 2,2 2,9 8,5 14 8 27 14 Z 1020,8 19 0 0,8
21.11.2017 04:00:00 2,8 1,3 2,1 2,2 2,9 8,5 15 8 33 18 ZZW 1021,3 3,7 0 1,0
21.11.2017 03:00:00 3,8 0,8 2,4 2,1 2,8 8,5 20 11 32 18 ZZW 1020,5 32 0 0,1
21.11.2017 02:00:00 2,6 -0,1 1,6 2,0 2,8 8,5 13 7 27 15 Z 1020,5 35 0 0,4
21.11.2017 01:00:00 5,3 -1,9 4,0 2,0 2,8 8,5 10 6 29 16 ZW 1020,1 70 0 0,0
21.11.2017 00:00:00 5,1 -3,6 3,5 1,8 2,8 8,5 16 9 34 19 ZZW 1020,1 70 0 0,0
20.11.2017 23:00:00 4,6 -3,0 3,4 1,7 2,8 8,5 14 8 31 17 ZW 1020,0 70 0 0,0
20.11.2017 22:00:00 4,1 -3,7 2,8 1,7 2,7 8,5 12 7 26 14 ZW 1021,0 70 0 0,0
20.11.2017 21:00:00 3,8 -3,5 2,6 1,7 2,7 8,5 13 7 33 18 ZW 1021,3 68 0 0,0
20.11.2017 20:00:00 3,8 -3,5 2,7 1,7 2,8 8,6 14 7 48 26 ZW 1021,7 60 0 0,0
20.11.2017 19:00:00 3,9 -3,8 2,6 1,7 2,8 8,6 12 6 28 15 ZZW 1021,9 70 0 0,0
20.11.2017 18:00:00 3,2 -3,7 2,2 1,7 2,8 8,6 15 8 28 15 ZW 1022,7 64 0 0,0
20.11.2017 17:00:00 2,4 -2,1 1,4 1,9 2,8 8,6 11 6 27 15 ZZW 1022,5 44 0 0,0
20.11.2017 16:00:00 3,0 -2,7 2,1 2,1 2,8 8,6 7 4 19 10 W 1022,1 48 0 0,0
20.11.2017 15:00:00 2,5 -2,4 2,0 2,3 2,7 8,6 8 4 25 13 W 1022,0 48 0 0,0
20.11.2017 14:00:00 2,3 -2,5 2,1 2,5 2,6 8,6 11 6 23 12 ZZW 1023,4 44 0 0,0
20.11.2017 13:00:00 2,5 -2,0 2,5 2,4 2,4 8,6 10 5 20 11 WZW 1024,2 35 0 0,0
20.11.2017 12:00:00 2,4 -2,2 2,1 1,9 2,3 8,6 9 5 17 9 Z 1024,9 37 0 0,0
20.11.2017 11:00:00 2,3 -1,8 2,3 0,9 2,2 8,6 7 4 16 8 ZZW 1025,3 33 0 0,0
20.11.2017 10:00:00 1,7 -2,0 1,4 0,7 2,2 8,6 10 5 18 10 Z 1025,2 31 0 0,0
20.11.2017 09:00:00 1,3 -1,8 0,5 0,6 2,2 8,6 9 5 14 8 Z 1025,3 27 0 0,0
20.11.2017 08:00:00 1,0 -1,9 -0,3 0,6 2,3 8,6 10 6 18 10 ZZW 1025,0 25 0 0,0
20.11.2017 07:00:00 0,7 -2,0 -0,8 0,6 2,3 8,6 9 5 16 9 ZW 1025,2 21 0 0,0
20.11.2017 06:00:00 0,8 -1,9 -1,1 0,6 2,3 8,6 7 4 21 11 ZW 1024,8 20 0 0,0
20.11.2017 05:00:00 1,4 -1,7 0,0 0,6 2,3 8,6 11 6 18 10 WZW 1025,0 20 0 0,0
20.11.2017 04:00:00 1,2 -1,8 0,0 0,6 2,3 8,6 7 4 18 10 WZW 1025,2 24 0 0,0
20.11.2017 03:00:00 0,9 -1,9 -0,4 0,6 2,4 8,6 9 5 22 12 WZW 1025,5 22 0 0,0
20.11.2017 02:00:00 1,1 -2,0 -0,1 0,6 2,4 8,7 10 5 19 10 ZW 1025,6 26 0 0,0
20.11.2017 01:00:00 1,2 -1,8 -0,2 0,6 2,4 8,7 9 5 26 14 ZW 1025,7 20 0 0,0
20.11.2017 00:00:00 1,1 -1,8 -0,4 0,6 2,5 8,7 12 6 25 14 WZW 1025,6 22 0 0,0
19.11.2017 23:00:00 1,2 -1,5 -0,7 0,6 2,5 8,7 13 7 26 14 ZW 1025,4 20 0 0,0
19.11.2017 22:00:00 1,0 -1,6 -0,9 0,7 2,6 8,7 11 6 21 11 ZW 1025,4 23 0 0,0
19.11.2017 21:00:00 1,0 -1,9 -0,4 0,7 2,6 8,7 9 5 21 11 ZW 1024,8 28 0 0,0
19.11.2017 20:00:00 1,1 -1,8 0,0 0,8 2,7 8,7 11 6 22 12 ZW 1023,9 29 0 0,0
19.11.2017 19:00:00 1,5 -2,0 0,6 1,2 2,7 8,7 13 7 23 12 ZW 1023,5 34 0 0,0
19.11.2017 18:00:00 1,4 -1,7 0,5 1,3 2,7 8,7 10 6 19 11 ZW 1023,2 34 0 0,0
19.11.2017 17:00:00 1,6 -2,0 0,7 1,5 2,7 8,7 9 5 25 13 ZW 1022,9 34 0 0,0
19.11.2017 16:00:00 1,9 -2,1 1,3 1,8 2,7 8,7 11 6 26 14 W 1022,0 37 0 0,0
19.11.2017 15:00:00 2,0 -1,8 1,8 1,7 2,7 8,7 10 5 29 16 W 1021,3 38 1 0,0
19.11.2017 14:00:00 2,3 -1,3 2,2 1,3 2,7 8,7 16 8 32 18 WNW 1020,8 20 22 0,0
19.11.2017 13:00:00 2,1 -1,6 1,6 0,9 2,7 8,7 18 10 38 20 W 1020,5 12 5 0,2
19.11.2017 12:00:00 1,6 -0,3 0,7 0,9 2,8 8,7 14 7 29 16 W 1020,3 8 0 0,2
19.11.2017 11:00:00 1,9 -0,3 1,5 0,9 2,8 8,7 16 9 34 19 WZW 1019,6 24 7 0,0
19.11.2017 10:00:00 1,2 -0,4 0,2 0,9 2,9 8,7 16 9 29 15 ZW 1019,2 17 0 0,7
19.11.2017 09:00:00 0,8 -0,3 0,0 1,0 2,9 8,7 15 8 37 20 ZW 1019,3 5 0 0,9
19.11.2017 08:00:00 0,8 -0,5 0,0 1,0 3,0 8,8 14 7 46 25 WZW 1018,5 6 0 0,9
19.11.2017 07:00:00 0,3 -0,4 0,0 1,0 3,1 8,8 16 8 29 16 ZZW 1018,2 1,1 0 0,8
19.11.2017 06:00:00 0,3 -0,3 0,0 1,0 3,1 8,8 13 7 25 14 Z 1018,7 0,9 0 2,2
19.11.2017 05:00:00 0,3 -0,5 0,0 1,1 3,2 8,8 14 7 32 17 Z 1019,2 1,3 0 0,4
19.11.2017 04:00:00 0,5 -0,6 0,0 1,1 3,3 8,8 13 7 34 18 ZZW 1019,7 1,5 0 0,3
19.11.2017 03:00:00 0,4 -0,6 0,0 1,2 3,5 8,8 11 6 28 15 ZZW 1020,7 0,9 0 0,6
19.11.2017 02:00:00 0,3 -0,3 0,0 1,4 3,6 8,8 15 8 32 17 Z 1020,7 0,7 0 0,5
19.11.2017 01:00:00 1,5 -1,6 1,2 2,1 3,6 8,8 12 6 21 12 ZW 1021,4 14 0 0,0
19.11.2017 00:00:00 1,5 -1,8 1,1 2,2 3,7 8,8 12 6 27 15 WZW 1022,1 15 0 0,0
18.11.2017 23:00:00 2,0 -1,5 1,6 2,4 3,8 8,8 11 6 20 11 W 1022,9 14 0 0,0
18.11.2017 22:00:00 2,2 -1,8 1,9 2,5 3,8 8,8 12 6 32 17 WZW 1022,9 16 0 0,0
18.11.2017 21:00:00 2,3 -1,3 1,9 2,6 3,9 8,8 11 6 22 12 WZW 1023,3 14 0 0,0
18.11.2017 20:00:00 2,5 -1,3 2,0 2,7 4,0 8,8 11 6 25 14 WZW 1023,1 16 0 0,0
18.11.2017 19:00:00 2,5 -1,6 2,1 2,9 4,0 8,8 9 5 25 14 ZW 1022,9 16 0 0,0
18.11.2017 18:00:00 2,6 -1,0 2,2 3,2 4,1 8,8 11 6 29 16 ZW 1022,8 17 0 0,0
18.11.2017 17:00:00 2,7 -0,1 2,5 3,5 4,1 8,8 11 6 27 14 W 1022,8 17 0 0,0

tt = temperatuur
td = dauwpunt
tt 5cm = temperatuur 5cm
tt -5cm = temperatuur -5cm
tt -20cm = temperatuur -20cm
tt -100cm = temperatuur -100cm
ff = windsnelheid
fx = windstoten
dd = windrichting
ppp = luchtdruk
vv = zicht
sd = Zonneschijnduur
rr = neerslag

Weerstations in de omgeving